Regional Weather Roundup
Issued by NWS Albany, NY

Home | Current Version | Previous Version | Graphics & Text | Print | Product List | Glossary On
Versions: 1 2 3 4 5 6 7 8 9 10 11 12 13 14 15 16 17 18 19 20 21 22 23 24 25 26 27 28 29 30 31 32 33 34 35 36 37 38 39 40 41 42 43 44 45 46 47 48 49
000
ASUS41 KALY 020410
RWRALY

NEW YORK STATE HOURLY WEATHER ROUNDUP
NATIONAL WEATHER SERVICE ALBANY NY
1200 AM EDT WED SEP 02 2015

NOTE: "FAIR" INDICATES FEW OR NO CLOUDS BELOW 12,000 FEET WITH NO
SIGNIFICANT WEATHER AND/OR NO OBSTRUCTIONS TO VISIBILITY.

NYZ032-033-038>043-046>054-057>066-NYZ062>081-020500-
EAST


CITY           SKY/WX    TMP DP  RH WIND       PRES   REMARKS
ALBANY         CLEAR     70  63  78 CALM      30.04S
GLENS FALLS    CLEAR     66  62  87 CALM      30.03R
POUGHKEEPSIE   CLEAR     66  61  84 CALM      30.04S
NEWBURGH       CLEAR     68  63  83 CALM      30.07R
MONTGOMERY     CLEAR     64  62  93 CALM      30.06R
WHITE PLAINS   CLEAR     69  64  84 CALM      30.06S
ISLIP          CLEAR     72  68  87 SW5       30.05R
NEW YORK CITY  CLEAR     77  67  71 S6        30.05S
CENTRAL PARK   CLEAR     78  62  57 CALM      30.08S
$$

NYZ005>009-017-018-044>046-055-056-020500-
CENTRAL


CITY           SKY/WX    TMP DP  RH WIND       PRES   REMARKS
FULTON         FOG       66  64  93 CALM      30.05S VSB 1
SYRACUSE       CLEAR     68  67  96 SE5       30.04S FOG
ROME           CLEAR     64  62  93 CALM      30.07S
ELMIRA         CLEAR     64  64 100 CALM      30.08S FOG
BINGHAMTON     CLEAR     71  65  81 CALM      30.11S
MONTICELLO     CLEAR     63  63 100 CALM      30.12S
$$

NYZ026>034-041>043-020500-
NORTH


CITY           SKY/WX    TMP DP  RH WIND       PRES   REMARKS
WATERTOWN      CLEAR     63  61  93 CALM      30.04R FOG
FORT DRUM      NOT AVBL
MASSENA        CLEAR     66  63  90 SW5       30.02R FOG
SARANAC LAKE   MOCLDY    57  55  93 CALM      30.07S FOG
PLATTSBURGH    CLEAR     63  62  97 SW3       30.00S
$$

NYZ001>004-010>016-019>021-020500-
WEST


CITY           SKY/WX    TMP DP  RH WIND       PRES   REMARKS
NIAGARA FALLS  CLEAR     70  68  93 S3        30.05R FOG
BUFFALO        CLEAR     71  67  87 S7        30.06S FOG
DUNKIRK        CLEAR     69  65  86 S3        30.08S
JAMESTOWN      CLEAR     64  63  94 S3        30.13S
WELLSVILLE     CLEAR     68  63  84 CALM      30.16S
ROCHESTER      CLEAR     68  65  90 SW6       30.05S
PENN YAN       CLEAR     69  66  90 SW6       30.08S
$$

             KEY
       WCI = WIND CHILL INDEX
       VSB = VISIBILITY
       HX  = HEAT INDEX
$$


USA.gov is the U.S. government's official web portal to all federal, state and local government web resources and services.